This is the latest recevied weather packets stored in our database for station/object RUSSARO. If no packets are shown the sender has not sent any weather packets the latest 1 day(s).
| Time | Temp. | Humidity | Pressure | Rain* | Wind** | Luminosity | Snow |
|---|---|---|---|---|---|---|---|
| 1778008041 | 4.44° C | 88% | 1008.9 hPa | 0 mm | 8.94 m/s, 270° | - | - |
| 1778006841 | 4.44° C | 89% | 1008.8 hPa | 0 mm | 9.39 m/s, 268° | - | - |
| 1778005641 | 5° C | 81% | 1008.6 hPa | 0 mm | 9.39 m/s, 264° | - | - |
| 1778004441 | 5° C | 79% | 1008.4 hPa | 0 mm | 10.28 m/s, 266° | - | - |
| 1778003241 | 5° C | 83% | 1008.3 hPa | 0 mm | 8.94 m/s, 262° | - | - |
| 1778002040 | 5.56° C | 83% | 1008.2 hPa | 0 mm | 9.39 m/s, 256° | - | - |
| 1778000840 | 5.56° C | 83% | 1008.1 hPa | 0 mm | 10.73 m/s, 257° | - | - |
| 1777999641 | 6.11° C | 82% | 1008.1 hPa | 0 mm | 10.73 m/s, 260° | - | - |
| 1777998441 | 6.11° C | 81% | 1008.1 hPa | 0 mm | 11.18 m/s, 261° | - | - |
| 1777997241 | 6.67° C | 78% | 1008 hPa | 0 mm | 10.73 m/s, 260° | - | - |
| 1777996041 | 6.11° C | 78% | 1008 hPa | 0 mm | 10.73 m/s, 257° | - | - |
| 1777994840 | 6.67° C | 74% | 1007.9 hPa | 0 mm | 11.18 m/s, 260° | - | - |
| 1777993641 | 7.22° C | 75% | 1008 hPa | 0 mm | 10.73 m/s, 261° | - | - |
| 1777992441 | 7.22° C | 77% | 1007.8 hPa | 0 mm | 10.28 m/s, 259° | - | - |
| 1777991240 | 7.78° C | 74% | 1007.8 hPa | 0 mm | 10.28 m/s, 260° | - | - |
| 1777990040 | 7.78° C | 76% | 1007.7 hPa | 0 mm | 10.28 m/s, 256° | - | - |
| 1777988840 | 7.78° C | 74% | 1007.5 hPa | 0 mm | 10.28 m/s, 256° | - | - |
| 1777987640 | 7.78° C | 74% | 1007.4 hPa | 0 mm | 10.28 m/s, 259° | - | - |
| 1777986441 | 7.78° C | 73% | 1007.3 hPa | 0 mm | 11.18 m/s, 259° | - | - |
| 1777985240 | 8.33° C | 71% | 1007.2 hPa | 0 mm | 11.18 m/s, 262° | - | - |
| 1777984040 | 8.33° C | 68% | 1007.1 hPa | 0 mm | 10.28 m/s, 263° | - | - |
| 1777982840 | 8.33° C | 65% | 1006.9 hPa | 0 mm | 9.39 m/s, 270° | - | - |
| 1777981640 | 7.78° C | 67% | 1006.8 hPa | 0 mm | 9.83 m/s, 274° | - | - |
| 1777980440 | 8.33° C | 68% | 1006.6 hPa | 0 mm | 10.28 m/s, 274° | - | - |
| 1777979239 | 8.33° C | 68% | 1006.4 hPa | 0 mm | 11.18 m/s, 277° | - | - |
* Rain latest hour (hover to see other rain measurements)
** Current wind speed in m/s (hover to see current wind gust speed)